TimePDT,TemperatureF,Dew PointF,Humidity,Sea Level PressureIn,VisibilityMPH,Wind Direction,Wind SpeedMPH,Gust SpeedMPH,PrecipitationIn,Events,Conditions,WindDirDegrees,DateUTC
12:53 AM,69.1,48.9,49,29.74,10.0,South,6.9,-,N/A,,Clear,180,2013-08-28 07:53:00
1:53 AM,70.0,48.9,47,29.73,10.0,South,4.6,-,N/A,,Clear,180,2013-08-28 08:53:00
2:53 AM,68.0,50.0,52,29.73,10.0,South,8.1,-,N/A,,Clear,180,2013-08-28 09:53:00
3:53 AM,66.0,50.0,56,29.74,10.0,South,8.1,-,N/A,,Clear,170,2013-08-28 10:53:00
4:53 AM,64.0,48.9,58,29.75,10.0,South,5.8,-,N/A,,Clear,180,2013-08-28 11:53:00
5:53 AM,64.0,48.9,58,29.77,10.0,South,8.1,-,N/A,,Clear,190,2013-08-28 12:53:00
6:53 AM,64.9,50.0,58,29.81,10.0,South,8.1,-,N/A,,Clear,190,2013-08-28 13:53:00
7:53 AM,69.1,52.0,54,29.84,10.0,South,11.5,-,N/A,,Clear,180,2013-08-28 14:53:00
8:53 AM,72.0,54.0,53,29.85,10.0,SSW,12.7,-,N/A,,Clear,210,2013-08-28 15:53:00
9:53 AM,75.0,53.1,46,29.86,10.0,SW,9.2,-,N/A,,Clear,220,2013-08-28 16:53:00
10:53 AM,78.1,53.1,42,29.87,10.0,SW,5.8,-,N/A,,Clear,220,2013-08-28 17:53:00
11:53 AM,82.0,48.9,31,29.86,10.0,WSW,5.8,-,N/A,,Clear,240,2013-08-28 18:53:00
12:53 PM,84.9,48.0,28,29.84,10.0,WSW,11.5,-,N/A,,Clear,240,2013-08-28 19:53:00
1:53 PM,88.0,46.0,23,29.83,10.0,SSW,8.1,-,N/A,,Clear,210,2013-08-28 20:53:00
2:53 PM,89.1,46.9,23,29.82,10.0,WSW,10.4,18.4,N/A,,Clear,250,2013-08-28 21:53:00
3:53 PM,90.0,46.0,22,29.81,10.0,WNW,10.4,-,N/A,,Clear,290,2013-08-28 22:53:00
4:53 PM,91.9,44.1,19,29.80,10.0,West,6.9,-,N/A,,Clear,280,2013-08-28 23:53:00
5:53 PM,91.0,44.1,20,29.80,10.0,NNW,5.8,-,N/A,,Clear,340,2013-08-29 00:53:00
6:53 PM,89.1,45.0,22,29.79,10.0,North,6.9,-,N/A,,Clear,360,2013-08-29 01:53:00
7:53 PM,80.1,43.0,27,29.79,10.0,NNE,9.2,-,N/A,,Clear,30,2013-08-29 02:53:00
8:53 PM,77.0,44.1,31,29.80,10.0,East,8.1,-,N/A,,Clear,80,2013-08-29 03:53:00
9:53 PM,72.0,44.1,37,29.81,10.0,NE,4.6,-,N/A,,Clear,50,2013-08-29 04:53:00
10:53 PM,75.0,46.0,36,29.81,10.0,Calm,Calm,-,N/A,,Clear,0,2013-08-29 05:53:00
11:53 PM,71.1,46.0,41,29.82,10.0,ESE,5.8,-,N/A,,Clear,110,2013-08-29 06:53:00